Regional Weather Roundup
Issued by NWS

Home | Current Version | Previous Version | Text Only | Print | Product List | Glossary Off
Versions: 1 2 3 4 5 6 7 8 9 10 11 12 13 14 15 16 17 18 19 20 21 22 23 24 25 26 27 28 29 30 31 32 33 34 35 36 37 38 39 40 41 42 43 44 45 46 47 48 49 50

000
ASUS43 KLSX 220759
RWRMO

WEATHER SUMMARY FOR MISSOURI
NATIONAL WEATHER SERVICE SPRINGFIELD MO
300 AM CDT FRI MAY 22 2015

NOTE: "FAIR" INDICATES FEW OR NO CLOUDS BELOW 12,000 FEET WITH NO
       SIGNIFICANT WEATHER AND/OR OBSTRUCTIONS TO VISIBILITY.
       CURRENT SKY AND/OR WEATHER CONDITIONS ARE NOT AVAILABLE FOR
       CHILLICOTHE AND FARMINGTON.

MOZ001>031-035>038-043-044-053-054-220900-
...NORTHERN AND WESTERN MISSOURI...

CITY           SKY/WX    TMP DP  RH WIND       PRES   REMARKS
KANSAS CTY INT PTCLDY    51  45  79 SW6       30.22F
KANSAS C DTWN  CLEAR     55  45  68 SW3       30.22F
LEE`S SUMMIT   PTCLDY    51  44  77 W5        30.22F
ST JOSEPH      CLEAR     51  46  83 S5        30.22S
KIRKSVILLE     CLEAR     54  45  71 W7        30.19R

$$
MOZ066>068-077>081-088>096-101>105-220900-
...SOUTHWEST MISSOURI...

CITY           SKY/WX    TMP DP  RH WIND       PRES   REMARKS
SPRINGFIELD    CLEAR     46  42  86 CALM      30.22S
JOPLIN         CLEAR     45  44  97 E3        30.22F

$$
MOZ032>034-039>042-045>050-055>058-069>072-220900-
...CENTRAL MISSOURI...

CITY           SKY/WX    TMP DP  RH WIND       PRES   REMARKS
COLUMBIA       CLEAR     51  44  77 W7        30.21S
JEFFERSON CITY CLEAR     47  44  90 CALM      30.22S
ROLLA          CLEAR     45  42  89 SW8       30.21S
SEDALIA        CLEAR     54  44  69 SW6       30.23F
OSAGE BEACH    PTCLDY    45  41  87 CALM      30.23S

$$
MOZ051-052-059>065-220900-
...EAST CENTRAL MISSOURI...

CITY           SKY/WX    TMP DP  RH WIND       PRES   REMARKS
ST LOUIS INTL  CLEAR     53  43  68 W7        30.19R
SPIRIT OF STL  CLEAR     49  44  83 CALM      30.19R
ST CHARLES     CLEAR     48  45  89 CALM      30.19R

$$
MOZ072>076-082>087-097>100-106>115-220900-
...SOUTH CENTRAL AND SOUTHEAST MISSOURI...

CITY           SKY/WX    TMP DP  RH WIND       PRES   REMARKS
CAPE GIRARDEAU CLEAR     45  45 100 CALM      30.23R
FARMINGTON     CLEAR     41  39  93 CALM      30.25S
POPLAR BLUFF   CLEAR     46  44  93 NW3       30.23S
WEST PLAINS    CLEAR     42  39  89 CALM      30.23

$$



USA.gov is the U.S. government's official web portal to all federal, state and local government web resources and services.